Location: Gälforsberget
(66.6500°N, 22.4167°E)
Time: 21:37:19
(UTC+00:00)

Sich 1 Rocket - Pass Details

Date: 11 April 2026
Orbit: 610 x 646 km, 82.5° (Epoch: 16 May)

Event Time Altitude Azimuth Distance (km) Brightness Sun altitude
Exits shadow 22:39:47 24° 168° (SSE) 1,294 4.6 -14.7°
Maximum altitude 22:42:14 56° 100° (E) 749 3.9 -14.7°
Drops below altitude 10° 22:46:34 10° 22° (NNE) 1,999 7.4 -14.7°
Sets 22:48:49 0° 19° (NNE) 2,905 8.6 -14.7°
